Regional Weather Roundup
Issued by NWS Goodland, KS

Home | Current Version | Previous Version | Graphics & Text | Print | Product List | Glossary On
Versions: 1 2 3 4 5 6 7 8 9 10 11 12 13 14 15 16 17 18 19 20 21 22 23 24 25 26 27 28 29 30 31 32 33 34 35 36 37 38 39 40 41 42 43 44 45 46 47 48 49 50
000
ASUS43 KGLD 011659
RWRGLD

GOODLAND FORECAST AREA HOURLY WEATHER ROUNDUP
NATIONAL WEATHER SERVICE GOODLAND KS
1100 AM MDT FRI AUG 01 2014

...OFFICIAL OBSERVATIONS...

CITY           SKY/WX    TMP DP  RH WIND       PRES   REMARKS
GOODLAND KS    SUNNY     83  50  31 NW8       30.21R
HILL CITY KS   SUNNY     86  52  30 N8        30.13S
IMPERIAL NEB   SUNNY     84  49  29 E5        30.18R
MCCOOK NEB     SUNNY     82  57  42 S3        30.15S
AKRON CO       SUNNY     78  47  33 E5        30.26S
BURLINGTON CO  MOSUNNY   81  44  27 CALM      30.24R
LIMON CO       SUNNY     75  43  31 SE14      30.30S
$$

...UNOFFICIAL OBSERVATIONS...

CITY           SKY/WX    TMP DP  RH WIND       PRES   REMARKS
COLBY KS       SUNNY     84  57  39 CALM      30.18S
GOVE KS          N/A     85  32  15 MISG        N/A
LENORA KS        N/A     82  32  16 MISG        N/A
NORTON KS      SUNNY     82  46  28 NE5       30.12F
TRENTON NEB      N/A     84  32  15 SE7         N/A
KIT CARSON CO    N/A     78  48  34 CALM        N/A
YUMA CO          N/A     80  50  34 CALM        N/A
$$



USA.gov is the U.S. government's official web portal to all federal, state and local government web resources and services.